Year,Month,Day,Hour,Minute,Value (Times are PST for windgust in km/hr)
2009,03,24,00,00,0.00
2009,03,24,00,01,3.20
2009,03,24,00,02,3.20
2009,03,24,00,03,1.60
2009,03,24,00,04,1.60
2009,03,24,00,05,1.60
2009,03,24,00,06,0.00
2009,03,24,00,07,3.20
2009,03,24,00,08,0.00
2009,03,24,00,09,3.20
2009,03,24,00,10,6.40
2009,03,24,00,11,1.60
2009,03,24,00,12,0.00
2009,03,24,01,02,4.80
2009,03,24,01,03,0.00
2009,03,24,01,04,1.60
2009,03,24,01,05,1.60
2009,03,24,01,06,0.00
2009,03,24,01,07,1.60
2009,03,24,01,08,0.00
2009,03,24,01,09,4.80
2009,03,24,01,10,1.60
2009,03,24,01,11,4.80
2009,03,24,01,12,3.20
2009,03,24,01,13,1.60
2009,03,24,01,14,0.00
2009,03,24,01,15,1.60
2009,03,24,01,16,4.80
2009,03,24,01,17,0.00
2009,03,24,01,18,0.00
2009,03,24,01,19,1.60
2009,03,24,01,20,1.60
2009,03,24,01,21,0.00
2009,03,24,01,22,3.20
2009,03,24,01,23,0.00
2009,03,24,01,24,0.00
2009,03,24,01,25,0.00
2009,03,24,01,26,1.60
2009,03,24,01,27,1.60
2009,03,24,01,28,4.80
2009,03,24,01,29,3.20
2009,03,24,01,30,0.00
2009,03,24,01,31,1.60
2009,03,24,01,32,0.00
2009,03,24,01,33,1.60
2009,03,24,01,34,0.00
2009,03,24,01,35,0.00
2009,03,24,01,36,1.60
2009,03,24,01,37,0.00
2009,03,24,01,38,0.00
2009,03,24,01,39,1.60
2009,03,24,01,40,1.60
2009,03,24,01,41,1.60
2009,03,24,01,42,1.60
2009,03,24,01,43,4.80
2009,03,24,01,44,3.20
2009,03,24,01,45,3.20
2009,03,24,01,46,0.00
2009,03,24,01,47,0.00
2009,03,24,01,48,1.60
2009,03,24,01,49,1.60
2009,03,24,01,50,9.60
2009,03,24,01,51,0.00
2009,03,24,01,52,0.00
2009,03,24,01,53,1.60
2009,03,24,01,54,1.60
2009,03,24,01,55,1.60
2009,03,24,01,56,1.60
2009,03,24,01,57,0.00
2009,03,24,01,58,3.20
2009,03,24,01,59,1.60
2009,03,24,02,00,3.20
2009,03,24,02,01,4.80
2009,03,24,02,02,0.00
2009,03,24,02,03,1.60
2009,03,24,02,04,3.20
2009,03,24,02,05,0.00
2009,03,24,02,06,0.00
2009,03,24,02,07,1.60
2009,03,24,02,08,1.60
2009,03,24,02,09,1.60
2009,03,24,02,10,3.20
2009,03,24,02,11,0.00
2009,03,24,02,12,6.40
2009,03,24,02,13,6.40
2009,03,24,02,14,1.60
2009,03,24,02,15,1.60
2009,03,24,02,16,0.00
2009,03,24,02,17,1.60
2009,03,24,02,18,4.80
2009,03,24,02,19,3.20
2009,03,24,02,20,0.00
2009,03,24,02,21,4.80
2009,03,24,02,22,0.00
2009,03,24,02,23,3.20
2009,03,24,02,24,0.00
2009,03,24,02,25,1.60
2009,03,24,02,26,6.40
2009,03,24,02,27,0.00
2009,03,24,02,28,0.00
2009,03,24,02,29,0.00
2009,03,24,02,30,1.60
2009,03,24,02,31,1.60
2009,03,24,02,32,1.60
2009,03,24,02,33,1.60
2009,03,24,02,34,3.20
2009,03,24,02,35,3.20
2009,03,24,02,36,1.60
2009,03,24,02,37,1.60
2009,03,24,02,38,0.00
2009,03,24,02,39,0.00
2009,03,24,02,40,1.60
2009,03,24,02,41,0.00
2009,03,24,02,42,3.20
2009,03,24,02,43,3.20
2009,03,24,02,44,4.80
2009,03,24,02,45,1.60
2009,03,24,02,46,1.60
2009,03,24,02,47,1.60
2009,03,24,02,48,0.00
2009,03,24,02,49,1.60
2009,03,24,02,50,6.40
2009,03,24,02,51,0.00
2009,03,24,02,52,0.00
2009,03,24,02,53,1.60
2009,03,24,02,54,3.20
2009,03,24,02,55,1.60
2009,03,24,02,56,1.60
2009,03,24,02,57,3.20
2009,03,24,02,58,4.80
2009,03,24,02,59,4.80
2009,03,24,03,00,6.40
2009,03,24,03,01,8.10
2009,03,24,03,02,4.80
2009,03,24,03,03,3.20
2009,03,24,03,04,6.40
2009,03,24,03,05,1.60
2009,03,24,03,06,4.80
2009,03,24,03,07,4.80
2009,03,24,03,08,4.80
2009,03,24,03,09,4.80
2009,03,24,03,10,3.20
2009,03,24,03,11,4.80
2009,03,24,03,12,0.00
2009,03,24,03,13,1.60
2009,03,24,03,14,1.60
2009,03,24,03,15,3.20
2009,03,24,03,16,1.60
2009,03,24,03,17,4.80
2009,03,24,03,18,16.10
2009,03,24,03,19,4.80
2009,03,24,03,20,4.80
2009,03,24,03,21,3.20
2009,03,24,03,22,4.80
2009,03,24,03,23,12.90
2009,03,24,03,24,6.40
2009,03,24,03,25,8.10
2009,03,24,03,26,4.80
2009,03,24,03,27,4.80
2009,03,24,03,28,0.00
2009,03,24,03,29,4.80
2009,03,24,03,30,4.80
2009,03,24,03,31,3.20
2009,03,24,03,32,4.80
2009,03,24,03,33,9.60
2009,03,24,03,34,6.40
2009,03,24,03,35,6.40
2009,03,24,03,36,3.20
2009,03,24,03,37,8.10
2009,03,24,03,38,4.80
2009,03,24,03,39,1.60
2009,03,24,03,40,4.80
2009,03,24,03,41,3.20
2009,03,24,03,42,8.10
2009,03,24,03,43,6.40
2009,03,24,03,44,6.40
2009,03,24,03,45,1.60
2009,03,24,03,46,6.40
2009,03,24,03,47,4.80
2009,03,24,03,48,3.20
2009,03,24,03,49,1.60
2009,03,24,03,50,1.60
2009,03,24,03,51,6.40
2009,03,24,03,52,1.60
2009,03,24,03,53,3.20
2009,03,24,03,54,6.40
2009,03,24,03,55,1.60
2009,03,24,03,56,1.60
2009,03,24,03,57,8.10
2009,03,24,03,58,9.60
2009,03,24,03,59,1.60
2009,03,24,04,00,1.60
2009,03,24,04,01,1.60
2009,03,24,04,02,1.60
2009,03,24,04,03,3.20
2009,03,24,04,04,6.40
2009,03,24,04,05,3.20
2009,03,24,04,06,1.60
2009,03,24,04,07,4.80
2009,03,24,04,08,4.80
2009,03,24,04,09,3.20
2009,03,24,04,10,3.20
2009,03,24,04,11,4.80
2009,03,24,04,12,6.40
2009,03,24,04,13,4.80
2009,03,24,04,14,3.20
2009,03,24,04,15,1.60
2009,03,24,04,16,1.60
2009,03,24,04,17,1.60
2009,03,24,04,18,1.60
2009,03,24,04,19,4.80
2009,03,24,04,20,6.40
2009,03,24,04,21,6.40
2009,03,24,04,22,6.40
2009,03,24,04,23,4.80
2009,03,24,04,24,6.40
2009,03,24,04,25,3.20
2009,03,24,04,26,6.40
2009,03,24,04,27,4.80
2009,03,24,04,28,1.60
2009,03,24,04,29,6.40
2009,03,24,04,30,6.40
2009,03,24,04,31,4.80
2009,03,24,04,32,12.90
2009,03,24,04,33,4.80
2009,03,24,04,34,3.20
2009,03,24,04,35,0.00
2009,03,24,04,36,6.40
2009,03,24,04,37,8.10
2009,03,24,04,38,1.60
2009,03,24,04,39,3.20
2009,03,24,04,40,3.20
2009,03,24,04,41,4.80
2009,03,24,04,42,1.60
2009,03,24,04,43,6.40
2009,03,24,04,44,3.20
2009,03,24,04,45,8.10
2009,03,24,04,46,3.20
2009,03,24,04,47,3.20
2009,03,24,04,48,0.00
2009,03,24,04,49,0.00
2009,03,24,04,50,4.80
2009,03,24,04,51,3.20
2009,03,24,04,52,4.80
2009,03,24,04,53,1.60
2009,03,24,04,54,1.60
2009,03,24,04,55,1.60
2009,03,24,04,56,4.80
2009,03,24,04,57,6.40
2009,03,24,04,58,8.10
2009,03,24,04,59,12.90
2009,03,24,05,00,4.80
2009,03,24,05,01,4.80
2009,03,24,05,02,1.60
2009,03,24,05,03,3.20
2009,03,24,05,04,0.00
2009,03,24,05,05,0.00
2009,03,24,05,06,4.80
2009,03,24,05,07,4.80
2009,03,24,05,08,4.80
2009,03,24,05,09,1.60
2009,03,24,05,10,1.60
2009,03,24,05,11,1.60
2009,03,24,05,12,3.20
2009,03,24,05,13,9.60
2009,03,24,05,14,0.00
2009,03,24,05,15,0.00
2009,03,24,05,16,1.60
2009,03,24,05,17,6.40
2009,03,24,05,18,3.20
2009,03,24,05,19,6.40
2009,03,24,05,20,4.80
2009,03,24,05,21,4.80
2009,03,24,05,22,4.80
2009,03,24,05,23,0.00
2009,03,24,05,24,1.60
2009,03,24,05,25,0.00
2009,03,24,05,26,0.00
2009,03,24,05,27,0.00
2009,03,24,05,28,4.80
2009,03,24,05,29,4.80
2009,03,24,05,30,0.00
2009,03,24,05,31,4.80
2009,03,24,05,32,1.60
2009,03,24,05,33,1.60
2009,03,24,05,34,6.40
2009,03,24,05,35,1.60
2009,03,24,05,36,1.60
2009,03,24,05,37,3.20
2009,03,24,05,38,4.80
2009,03,24,05,39,6.40
2009,03,24,05,40,1.60
2009,03,24,05,41,0.00
2009,03,24,05,42,4.80
2009,03,24,05,43,4.80
2009,03,24,05,44,1.60
2009,03,24,05,45,1.60
2009,03,24,05,46,0.00
2009,03,24,05,47,3.20
2009,03,24,05,48,8.10
2009,03,24,05,49,4.80
2009,03,24,05,50,3.20
2009,03,24,05,51,4.80
2009,03,24,05,52,4.80
2009,03,24,05,53,0.00
2009,03,24,05,54,8.10
2009,03,24,05,55,1.60
2009,03,24,05,56,4.80
2009,03,24,05,57,1.60
2009,03,24,05,58,3.20
2009,03,24,05,59,4.80
2009,03,24,06,00,1.60
2009,03,24,06,01,0.00
2009,03,24,06,02,1.60
2009,03,24,06,03,1.60
2009,03,24,06,04,1.60
2009,03,24,06,05,3.20
2009,03,24,06,06,1.60
2009,03,24,06,07,1.60
2009,03,24,06,08,0.00
2009,03,24,06,09,3.20
2009,03,24,06,10,9.60
2009,03,24,06,11,4.80
2009,03,24,06,12,4.80
2009,03,24,06,13,0.00
2009,03,24,06,14,1.60
2009,03,24,06,15,3.20
2009,03,24,06,16,1.60
2009,03,24,06,17,4.80
2009,03,24,06,18,3.20
2009,03,24,06,19,3.20
2009,03,24,06,20,1.60
2009,03,24,06,21,0.00
2009,03,24,06,22,0.00
2009,03,24,06,23,3.20
2009,03,24,06,24,1.60
2009,03,24,06,25,3.20
2009,03,24,06,26,1.60
2009,03,24,06,27,1.60
2009,03,24,06,28,3.20
2009,03,24,06,29,1.60
2009,03,24,06,30,0.00
2009,03,24,06,31,3.20
2009,03,24,06,32,3.20
2009,03,24,06,33,1.60
2009,03,24,06,34,1.60
2009,03,24,06,35,1.60
2009,03,24,06,36,3.20
2009,03,24,06,37,1.60
2009,03,24,06,38,4.80
2009,03,24,06,39,4.80
2009,03,24,06,40,3.20
2009,03,24,06,41,1.60
2009,03,24,06,42,0.00
2009,03,24,06,43,0.00
2009,03,24,06,44,0.00
2009,03,24,06,45,1.60
2009,03,24,06,46,1.60
2009,03,24,06,47,1.60
2009,03,24,06,48,1.60
2009,03,24,06,49,4.80
2009,03,24,06,50,0.00
2009,03,24,06,51,0.00
2009,03,24,06,52,1.60
2009,03,24,06,53,1.60
2009,03,24,06,54,3.20
2009,03,24,06,55,3.20
2009,03,24,06,56,0.00
2009,03,24,06,57,0.00
2009,03,24,06,58,0.00
2009,03,24,06,59,0.00
2009,03,24,07,00,0.00
2009,03,24,07,01,0.00
2009,03,24,07,02,0.00
2009,03,24,07,03,1.60
2009,03,24,07,04,1.60
2009,03,24,07,05,0.00
2009,03,24,07,06,0.00
2009,03,24,07,07,0.00
2009,03,24,07,08,1.60
2009,03,24,07,09,0.00
2009,03,24,07,10,0.00
2009,03,24,07,11,0.00
2009,03,24,07,12,0.00
2009,03,24,07,13,0.00
2009,03,24,07,14,0.00
2009,03,24,07,15,1.60
2009,03,24,07,16,0.00
2009,03,24,07,17,0.00
2009,03,24,07,18,0.00
2009,03,24,07,19,0.00
2009,03,24,07,20,3.20
2009,03,24,07,21,3.20
2009,03,24,07,22,6.40
2009,03,24,07,23,0.00
2009,03,24,07,24,0.00
2009,03,24,07,25,0.00
2009,03,24,07,26,0.00
2009,03,24,07,27,0.00
2009,03,24,07,28,0.00
2009,03,24,07,29,0.00
2009,03,24,07,30,0.00
2009,03,24,07,31,0.00
2009,03,24,07,32,1.60
2009,03,24,07,33,4.80
2009,03,24,07,34,0.00
2009,03,24,07,35,0.00
2009,03,24,07,36,0.00
2009,03,24,07,37,0.00
2009,03,24,07,38,0.00
2009,03,24,07,39,0.00
2009,03,24,07,40,0.00
2009,03,24,07,41,1.60
2009,03,24,07,42,1.60
2009,03,24,07,43,0.00
2009,03,24,07,44,0.00
2009,03,24,07,45,0.00
2009,03,24,07,46,0.00
2009,03,24,07,47,0.00
2009,03,24,07,48,0.00
2009,03,24,07,49,0.00
2009,03,24,07,50,0.00
2009,03,24,07,51,0.00
2009,03,24,07,52,1.60
2009,03,24,07,53,0.00
2009,03,24,07,54,3.20
2009,03,24,07,55,8.10
2009,03,24,07,56,3.20
2009,03,24,07,57,3.20
2009,03,24,07,58,0.00
2009,03,24,07,59,0.00
2009,03,24,08,00,0.00
2009,03,24,08,01,1.60
2009,03,24,08,02,1.60
2009,03,24,08,03,0.00
2009,03,24,08,04,0.00
2009,03,24,08,05,1.60
2009,03,24,08,06,0.00
2009,03,24,08,07,0.00
2009,03,24,08,08,0.00
2009,03,24,08,09,0.00
2009,03,24,08,10,0.00
2009,03,24,08,11,0.00
2009,03,24,08,12,0.00
2009,03,24,08,13,0.00
2009,03,24,08,14,0.00
2009,03,24,08,15,0.00
2009,03,24,08,16,1.60
2009,03,24,08,17,1.60
2009,03,24,08,18,0.00
2009,03,24,08,19,1.60
2009,03,24,08,20,0.00
2009,03,24,08,21,1.60
2009,03,24,08,22,1.60
2009,03,24,08,23,1.60
2009,03,24,08,24,0.00
2009,03,24,08,25,1.60
2009,03,24,08,26,0.00
2009,03,24,08,27,0.00
2009,03,24,08,28,1.60
2009,03,24,08,29,0.00
2009,03,24,08,30,0.00
2009,03,24,08,31,0.00
2009,03,24,08,32,0.00
2009,03,24,08,33,0.00
2009,03,24,08,34,3.20
2009,03,24,08,35,3.20
2009,03,24,08,36,1.60
2009,03,24,08,37,1.60
2009,03,24,08,38,4.80
2009,03,24,08,39,3.20
2009,03,24,08,40,0.00
2009,03,24,08,41,0.00
2009,03,24,08,42,3.20
2009,03,24,08,43,1.60
2009,03,24,08,44,3.20
2009,03,24,08,45,3.20
2009,03,24,08,46,1.60
2009,03,24,08,47,1.60
2009,03,24,08,48,0.00
2009,03,24,08,49,0.00
2009,03,24,08,50,0.00
2009,03,24,08,51,4.80
2009,03,24,08,52,1.60
2009,03,24,08,53,1.60
2009,03,24,08,54,1.60
2009,03,24,08,55,0.00
2009,03,24,08,56,0.00
2009,03,24,08,57,1.60
2009,03,24,08,58,4.80
2009,03,24,08,59,1.60
2009,03,24,09,00,0.00
2009,03,24,09,01,0.00
2009,03,24,09,02,3.20
2009,03,24,09,03,1.60
2009,03,24,09,04,4.80
2009,03,24,09,05,3.20
2009,03,24,09,06,0.00
2009,03,24,09,07,0.00
2009,03,24,09,08,3.20
2009,03,24,09,09,0.00
2009,03,24,09,10,0.00
2009,03,24,09,11,0.00
2009,03,24,09,12,0.00
2009,03,24,09,13,3.20
2009,03,24,09,14,0.00
2009,03,24,09,15,0.00
2009,03,24,09,16,0.00
2009,03,24,09,17,1.60
2009,03,24,09,18,0.00
2009,03,24,09,19,0.00
2009,03,24,09,20,0.00
2009,03,24,09,21,1.60
2009,03,24,09,22,0.00
2009,03,24,09,23,0.00
2009,03,24,09,24,4.80
2009,03,24,09,25,1.60
2009,03,24,09,26,1.60
2009,03,24,09,27,0.00
2009,03,24,09,28,0.00
2009,03,24,09,29,0.00
2009,03,24,09,30,1.60
2009,03,24,09,31,4.80
2009,03,24,09,32,1.60
2009,03,24,09,33,1.60
2009,03,24,09,34,0.00
2009,03,24,09,35,0.00
2009,03,24,09,36,0.00
2009,03,24,09,37,0.00
2009,03,24,09,38,0.00
2009,03,24,09,39,1.60
2009,03,24,09,40,0.00
2009,03,24,09,41,1.60
2009,03,24,09,42,3.20
2009,03,24,09,43,1.60
2009,03,24,09,44,1.60
2009,03,24,09,45,3.20
2009,03,24,09,46,3.20
2009,03,24,09,47,0.00
2009,03,24,09,48,0.00
2009,03,24,09,49,0.00
2009,03,24,09,50,0.00
2009,03,24,09,51,4.80
2009,03,24,09,52,0.00
2009,03,24,09,53,1.60
2009,03,24,09,54,0.00
2009,03,24,09,55,0.00
2009,03,24,09,56,1.60
2009,03,24,09,57,1.60
2009,03,24,09,58,1.60
2009,03,24,09,59,1.60
2009,03,24,10,00,1.60
2009,03,24,10,01,0.00
2009,03,24,10,02,0.00
2009,03,24,10,03,1.60
2009,03,24,10,04,4.80
2009,03,24,10,05,1.60
2009,03,24,10,06,1.60
2009,03,24,10,07,1.60
2009,03,24,10,08,1.60
2009,03,24,10,09,1.60
2009,03,24,10,10,0.00
2009,03,24,10,11,1.60
2009,03,24,10,12,1.60
2009,03,24,10,13,1.60
2009,03,24,10,14,0.00
2009,03,24,10,15,1.60
2009,03,24,10,16,3.20
2009,03,24,10,17,3.20
2009,03,24,10,18,1.60
2009,03,24,10,19,3.20
2009,03,24,10,20,4.80
2009,03,24,10,21,1.60
2009,03,24,10,22,3.20
2009,03,24,10,23,1.60
2009,03,24,10,24,0.00
2009,03,24,10,25,0.00
2009,03,24,10,26,3.20
2009,03,24,10,27,1.60
2009,03,24,10,28,1.60
2009,03,24,10,29,8.10
2009,03,24,10,30,1.60
2009,03,24,10,31,4.80
2009,03,24,10,32,1.60
2009,03,24,10,33,3.20
2009,03,24,10,34,3.20
2009,03,24,10,35,1.60
2009,03,24,10,36,1.60
2009,03,24,10,37,0.00
2009,03,24,10,38,1.60
2009,03,24,10,39,1.60
2009,03,24,10,40,0.00
2009,03,24,10,41,0.00
2009,03,24,10,42,1.60
2009,03,24,10,43,6.40
2009,03,24,10,44,3.20
2009,03,24,10,45,1.60
2009,03,24,10,46,6.40
2009,03,24,10,47,4.80
2009,03,24,10,48,1.60
2009,03,24,10,49,8.10
2009,03,24,10,50,0.00
2009,03,24,10,51,1.60
2009,03,24,10,52,1.60
2009,03,24,10,53,1.60
2009,03,24,10,54,8.10
2009,03,24,10,55,4.80
2009,03,24,10,56,3.20
2009,03,24,10,57,0.00
2009,03,24,10,58,0.00
2009,03,24,10,59,4.80
2009,03,24,11,00,1.60
2009,03,24,11,01,4.80
2009,03,24,11,02,1.60
2009,03,24,11,03,1.60
2009,03,24,11,04,1.60
2009,03,24,11,05,3.20
2009,03,24,11,06,6.40
2009,03,24,11,07,3.20
2009,03,24,11,08,6.40
2009,03,24,11,09,3.20
2009,03,24,11,10,4.80
2009,03,24,11,11,1.60
2009,03,24,11,12,3.20
2009,03,24,11,13,1.60
2009,03,24,11,14,6.40
2009,03,24,11,15,0.00
2009,03,24,11,16,0.00
2009,03,24,11,17,0.00
2009,03,24,11,18,0.00
2009,03,24,11,19,0.00
2009,03,24,11,20,1.60
2009,03,24,11,21,0.00
2009,03,24,11,22,0.00
2009,03,24,11,23,1.60
2009,03,24,11,24,1.60
2009,03,24,11,25,1.60
2009,03,24,11,26,1.60
2009,03,24,11,27,1.60
2009,03,24,11,28,1.60
2009,03,24,11,29,4.80
2009,03,24,11,30,6.40
2009,03,24,11,31,8.10
2009,03,24,11,32,1.60
2009,03,24,11,33,3.20
2009,03,24,11,34,6.40
2009,03,24,11,35,4.80
2009,03,24,11,36,4.80
2009,03,24,11,37,3.20
2009,03,24,11,38,3.20
2009,03,24,11,39,4.80
2009,03,24,11,40,1.60
2009,03,24,11,41,0.00
2009,03,24,11,42,1.60
2009,03,24,11,43,1.60
2009,03,24,11,44,1.60
2009,03,24,11,45,0.00
2009,03,24,11,46,1.60
2009,03,24,11,47,3.20
2009,03,24,11,48,1.60
2009,03,24,11,49,1.60
2009,03,24,11,50,3.20
2009,03,24,11,51,1.60
2009,03,24,11,52,1.60
2009,03,24,11,53,1.60
2009,03,24,11,54,1.60
2009,03,24,11,55,1.60
2009,03,24,11,56,1.60
2009,03,24,11,57,1.60
2009,03,24,11,58,1.60
2009,03,24,11,59,1.60
2009,03,24,12,00,0.00
2009,03,24,12,01,0.00
2009,03,24,12,02,1.60
2009,03,24,12,03,1.60
2009,03,24,12,04,1.60
2009,03,24,12,05,1.60
2009,03,24,12,06,1.60
2009,03,24,12,07,0.00
2009,03,24,12,08,1.60
2009,03,24,12,09,0.00
2009,03,24,12,10,1.60
2009,03,24,12,11,1.60
2009,03,24,12,12,1.60
2009,03,24,12,13,0.00
2009,03,24,12,14,0.00
2009,03,24,12,15,0.00
2009,03,24,12,16,0.00
2009,03,24,12,17,0.00
2009,03,24,12,18,0.00
2009,03,24,12,19,0.00
2009,03,24,12,20,0.00
2009,03,24,12,21,1.60
2009,03,24,12,22,0.00
2009,03,24,12,23,1.60
2009,03,24,12,24,4.80
2009,03,24,12,25,0.00
2009,03,24,12,26,0.00
2009,03,24,12,27,3.20
2009,03,24,12,28,3.20
2009,03,24,12,29,1.60
2009,03,24,12,30,0.00
2009,03,24,12,31,0.00
2009,03,24,12,32,0.00
2009,03,24,12,33,0.00
2009,03,24,12,34,0.00
2009,03,24,12,35,1.60
2009,03,24,12,36,4.80
2009,03,24,12,37,3.20
2009,03,24,12,38,0.00
2009,03,24,12,39,4.80
2009,03,24,12,40,3.20
2009,03,24,12,41,1.60
2009,03,24,12,42,0.00
2009,03,24,12,43,3.20
2009,03,24,12,44,3.20
2009,03,24,12,45,0.00
2009,03,24,12,46,0.00
2009,03,24,12,47,1.60
2009,03,24,12,48,3.20
2009,03,24,12,49,1.60
2009,03,24,12,50,1.60
2009,03,24,12,51,1.60
2009,03,24,12,52,1.60
2009,03,24,12,53,3.20
2009,03,24,12,54,1.60
2009,03,24,12,55,0.00
2009,03,24,12,56,1.60
2009,03,24,12,57,1.60
2009,03,24,12,58,3.20
2009,03,24,12,59,1.60
2009,03,24,13,00,1.60
2009,03,24,13,01,1.60
2009,03,24,13,02,1.60
2009,03,24,13,03,1.60
2009,03,24,13,04,0.00
2009,03,24,13,05,1.60
2009,03,24,13,06,0.00
2009,03,24,13,07,0.00
2009,03,24,13,08,0.00
2009,03,24,13,09,3.20
2009,03,24,13,10,0.00
2009,03,24,13,11,0.00
2009,03,24,13,12,0.00
2009,03,24,13,13,4.80
2009,03,24,13,14,1.60
2009,03,24,13,15,1.60
2009,03,24,13,16,1.60
2009,03,24,13,17,1.60
2009,03,24,13,18,1.60
2009,03,24,13,19,3.20
2009,03,24,13,20,0.00
2009,03,24,13,21,1.60
2009,03,24,13,22,3.20
2009,03,24,13,23,1.60
2009,03,24,13,24,1.60
2009,03,24,13,25,3.20
2009,03,24,13,26,1.60
2009,03,24,13,27,0.00
2009,03,24,13,28,1.60
2009,03,24,13,29,6.40
2009,03,24,13,30,1.60
2009,03,24,13,31,3.20
2009,03,24,13,32,1.60
2009,03,24,13,33,3.20
2009,03,24,13,34,4.80
2009,03,24,13,35,4.80
2009,03,24,13,36,1.60
2009,03,24,13,37,4.80
2009,03,24,13,38,3.20
2009,03,24,13,39,1.60
2009,03,24,13,40,1.60
2009,03,24,13,41,3.20
2009,03,24,13,42,1.60
2009,03,24,13,43,4.80
2009,03,24,13,44,3.20
2009,03,24,13,45,0.00
2009,03,24,13,46,1.60
2009,03,24,13,47,4.80
2009,03,24,13,48,3.20
2009,03,24,13,49,3.20
2009,03,24,13,50,1.60
2009,03,24,13,51,3.20
2009,03,24,13,52,3.20
2009,03,24,13,53,3.20
2009,03,24,13,54,4.80
2009,03,24,13,55,1.60
2009,03,24,13,56,3.20
2009,03,24,13,57,1.60
2009,03,24,13,58,1.60
2009,03,24,13,59,3.20
2009,03,24,14,00,3.20
2009,03,24,14,01,3.20
2009,03,24,14,02,1.60
2009,03,24,14,03,1.60
2009,03,24,14,04,3.20
2009,03,24,14,05,1.60
2009,03,24,14,06,6.40
2009,03,24,14,07,4.80
2009,03,24,14,08,1.60
2009,03,24,14,09,1.60
2009,03,24,14,10,6.40
2009,03,24,14,11,1.60
2009,03,24,14,12,1.60
2009,03,24,14,13,1.60
2009,03,24,14,14,3.20
2009,03,24,14,15,1.60
2009,03,24,14,16,0.00
2009,03,24,14,17,1.60
2009,03,24,14,18,1.60
2009,03,24,14,19,0.00
2009,03,24,14,20,0.00
2009,03,24,14,21,0.00
2009,03,24,14,22,1.60
2009,03,24,14,23,1.60
2009,03,24,14,24,1.60
2009,03,24,14,25,0.00
2009,03,24,14,26,1.60
2009,03,24,14,27,1.60
2009,03,24,14,28,1.60
2009,03,24,14,29,4.80
2009,03,24,14,30,6.40
2009,03,24,14,31,3.20
2009,03,24,14,32,4.80
2009,03,24,14,33,1.60
2009,03,24,14,34,0.00
2009,03,24,14,35,0.00
2009,03,24,14,36,1.60
2009,03,24,14,37,4.80
2009,03,24,14,38,4.80
2009,03,24,14,39,4.80
2009,03,24,14,40,3.20
2009,03,24,14,41,1.60
2009,03,24,14,42,1.60
2009,03,24,14,43,1.60
2009,03,24,14,44,1.60
2009,03,24,14,45,0.00
2009,03,24,14,46,3.20
2009,03,24,14,47,1.60
2009,03,24,14,48,3.20
2009,03,24,14,49,3.20
2009,03,24,14,50,0.00
2009,03,24,14,51,0.00
2009,03,24,14,52,3.20
2009,03,24,14,53,1.60
2009,03,24,14,54,1.60
2009,03,24,14,55,0.00
2009,03,24,14,56,1.60
2009,03,24,14,57,4.80
2009,03,24,14,58,4.80
2009,03,24,14,59,0.00
2009,03,24,15,00,0.00
2009,03,24,15,01,0.00
2009,03,24,15,02,1.60
2009,03,24,15,03,0.00
2009,03,24,15,04,1.60
2009,03,24,15,05,0.00
2009,03,24,15,06,0.00
2009,03,24,15,07,1.60
2009,03,24,15,08,1.60
2009,03,24,15,09,0.00
2009,03,24,15,10,1.60
2009,03,24,15,11,3.20
2009,03,24,15,12,4.80
2009,03,24,15,13,0.00
2009,03,24,15,14,0.00
2009,03,24,15,15,1.60
2009,03,24,15,16,3.20
2009,03,24,15,17,1.60
2009,03,24,15,18,1.60
2009,03,24,15,19,0.00
2009,03,24,15,20,0.00
2009,03,24,15,21,1.60
2009,03,24,15,22,1.60
2009,03,24,15,23,3.20
2009,03,24,15,24,1.60
2009,03,24,15,25,1.60
2009,03,24,15,26,1.60
2009,03,24,15,27,1.60
2009,03,24,15,28,0.00
2009,03,24,15,29,1.60
2009,03,24,15,30,0.00
2009,03,24,15,31,0.00
2009,03,24,15,32,0.00
2009,03,24,15,33,1.60
2009,03,24,15,34,0.00
2009,03,24,15,35,1.60
2009,03,24,15,36,1.60
2009,03,24,15,37,0.00
2009,03,24,15,38,1.60
2009,03,24,15,39,3.20
2009,03,24,15,40,0.00
2009,03,24,15,41,0.00
2009,03,24,15,42,0.00
2009,03,24,15,43,0.00
2009,03,24,15,44,0.00
2009,03,24,15,45,0.00
2009,03,24,15,46,1.60
2009,03,24,15,47,0.00
2009,03,24,15,48,0.00
2009,03,24,15,49,0.00
2009,03,24,15,50,0.00
2009,03,24,15,51,1.60
2009,03,24,15,52,0.00
2009,03,24,15,53,1.60
2009,03,24,15,54,1.60
2009,03,24,15,55,1.60
2009,03,24,15,56,1.60
2009,03,24,15,57,0.00
2009,03,24,15,58,0.00
2009,03,24,15,59,0.00
2009,03,24,16,00,1.60
2009,03,24,16,01,3.20
2009,03,24,16,02,4.80
2009,03,24,16,03,0.00
2009,03,24,16,04,0.00
2009,03,24,16,05,0.00
2009,03,24,16,06,0.00
2009,03,24,16,07,0.00
2009,03,24,16,08,0.00
2009,03,24,16,09,1.60
2009,03,24,16,10,1.60
2009,03,24,16,11,1.60
2009,03,24,16,12,1.60
2009,03,24,16,13,1.60
2009,03,24,16,14,1.60
2009,03,24,16,15,1.60
2009,03,24,16,16,3.20
2009,03,24,16,17,1.60
2009,03,24,16,18,1.60
2009,03,24,16,19,0.00
2009,03,24,16,20,0.00
2009,03,24,16,21,1.60
2009,03,24,16,22,0.00
2009,03,24,16,23,1.60
2009,03,24,16,24,3.20
2009,03,24,16,25,1.60
2009,03,24,16,26,1.60
2009,03,24,16,27,4.80
2009,03,24,16,28,3.20
2009,03,24,16,29,1.60
2009,03,24,16,30,0.00
2009,03,24,16,31,3.20
2009,03,24,16,32,1.60
2009,03,24,16,33,1.60
2009,03,24,16,34,1.60
2009,03,24,16,35,1.60
2009,03,24,16,36,3.20
2009,03,24,16,37,0.00
2009,03,24,16,38,0.00
2009,03,24,16,39,0.00
2009,03,24,16,40,0.00
2009,03,24,16,41,0.00
2009,03,24,16,42,0.00
2009,03,24,16,43,0.00
2009,03,24,16,44,0.00
2009,03,24,16,45,0.00
2009,03,24,16,46,0.00
2009,03,24,16,47,0.00
2009,03,24,16,48,0.00
2009,03,24,16,49,0.00
2009,03,24,16,50,0.00
2009,03,24,16,51,0.00
2009,03,24,16,52,0.00
2009,03,24,16,53,0.00
2009,03,24,16,54,0.00
2009,03,24,16,55,0.00
2009,03,24,16,56,3.20
2009,03,24,16,57,0.00
2009,03,24,16,58,1.60
2009,03,24,16,59,1.60
2009,03,24,17,00,1.60
2009,03,24,17,01,0.00
2009,03,24,17,02,1.60
2009,03,24,17,03,1.60
2009,03,24,17,04,1.60
2009,03,24,17,05,1.60
2009,03,24,17,06,6.40
2009,03,24,17,07,8.10
2009,03,24,17,08,4.80
2009,03,24,17,09,4.80
2009,03,24,17,10,3.20
2009,03,24,17,11,1.60
2009,03,24,17,12,0.00
2009,03,24,17,13,0.00
2009,03,24,17,14,8.10
2009,03,24,17,15,12.90
2009,03,24,17,16,6.40
2009,03,24,17,17,8.10
2009,03,24,17,18,9.60
2009,03,24,17,19,4.80
2009,03,24,17,20,3.20
2009,03,24,17,21,4.80
2009,03,24,17,22,1.60
2009,03,24,17,23,1.60
2009,03,24,17,24,0.00
2009,03,24,17,25,1.60
2009,03,24,17,26,1.60
2009,03,24,17,27,0.00
2009,03,24,17,28,0.00
2009,03,24,17,29,0.00
2009,03,24,17,30,3.20
2009,03,24,17,31,16.10
2009,03,24,17,32,14.50
2009,03,24,17,33,6.40
2009,03,24,17,34,3.20
2009,03,24,17,35,4.80
2009,03,24,17,36,8.10
2009,03,24,17,37,9.60
2009,03,24,17,38,22.50
2009,03,24,17,39,16.10
2009,03,24,17,40,11.30
2009,03,24,17,41,16.10
2009,03,24,17,42,11.30
2009,03,24,17,43,3.20
2009,03,24,17,44,9.60
2009,03,24,17,45,8.10
2009,03,24,17,46,11.30
2009,03,24,17,47,19.30
2009,03,24,17,48,9.60
2009,03,24,17,49,16.10
2009,03,24,17,50,14.50
2009,03,24,17,51,9.60
2009,03,24,17,52,8.10
2009,03,24,17,53,9.60
2009,03,24,17,54,11.30
2009,03,24,17,55,11.30
2009,03,24,17,56,9.60
2009,03,24,17,57,8.10
2009,03,24,17,58,14.50
2009,03,24,17,59,9.60
2009,03,24,18,00,12.90
2009,03,24,18,01,19.30
2009,03,24,18,02,11.30
2009,03,24,18,03,19.30
2009,03,24,18,04,20.90
2009,03,24,18,05,11.30
2009,03,24,18,06,20.90
2009,03,24,18,07,9.60
2009,03,24,18,08,9.60
2009,03,24,18,09,11.30
2009,03,24,18,10,11.30
2009,03,24,18,11,17.70
2009,03,24,18,12,16.10
2009,03,24,18,13,9.60
2009,03,24,18,14,24.20
2009,03,24,18,15,8.10
2009,03,24,18,16,9.60
2009,03,24,18,17,9.60
2009,03,24,18,18,4.80
2009,03,24,18,19,6.40
2009,03,24,18,20,12.90
2009,03,24,18,21,4.80
2009,03,24,18,22,11.30
2009,03,24,18,23,4.80
2009,03,24,18,24,9.60
2009,03,24,18,25,16.10
2009,03,24,18,26,6.40
2009,03,24,18,27,16.10
2009,03,24,18,28,11.30
2009,03,24,18,29,8.10
2009,03,24,18,30,4.80
2009,03,24,18,31,4.80
2009,03,24,18,32,8.10
2009,03,24,18,33,11.30
2009,03,24,18,34,14.50
2009,03,24,18,35,16.10
2009,03,24,18,36,11.30
2009,03,24,18,37,8.10
2009,03,24,18,38,9.60
2009,03,24,18,39,4.80
2009,03,24,18,40,4.80
2009,03,24,18,41,8.10
2009,03,24,18,42,14.50
2009,03,24,18,43,11.30
2009,03,24,18,44,9.60
2009,03,24,18,45,12.90
2009,03,24,18,46,11.30
2009,03,24,18,47,8.10
2009,03,24,18,48,9.60
2009,03,24,18,49,8.10
2009,03,24,18,50,3.20
2009,03,24,18,51,3.20
2009,03,24,18,52,3.20
2009,03,24,18,53,8.10